User: anonymous   Login
Location: Trondheim
(63.4170°N, 10.4170°E)
Time: 21:06:12
(UTC+01:00)
Language:

Iridium 82 - Orbit

View from above orbital plane
View from above orbital plane
View from above satellite
View from above satellite

Ground track
Ground track

The orbit data is extracted from the following two-line orbital elements,

1 25467U 98051A   17018.58995560  .00000178  00000-0  56614-4 0  9993
2 25467  86.3948  84.7145 0002387  90.0912 270.0557 14.34219259965178
Epoch (UTC): 18 January 2017 14:09:32
Eccentricity: 0.0002387
inclination: 86.3948°
perigee height: 776 km
apogee height: 779 km
right ascension of ascending node: 84.7145°
argument of perigee: 90.0912°
revolutions per day: 14.34219259
mean anomaly at epoch: 270.0557°
orbit number at epoch: 96517

The dashed part of the orbit path shows where the satellite is in the earth's shadow,  

DLR